COSMOS 338

导读

COSMOS 338(宇宙338)是苏联(CIS,独联体继承前身苏联航天遗产)于1970年4月25日发射的人造卫星,隶属于苏联规模最大的“宇宙号”卫星系列。该系列涵盖军用侦察、通信、科学试验等多类任务,多数为军用卫星,这颗卫星服役期间承担了相应的航天任务,作为早期航天探索的一部分,推动了苏联航天技术发展,是冷战时期太空竞赛阶段的重要航天产物。

基本信息
目录编号:
4385
目录名称:
COSMOS 338
国际标识:
1970-036C
轨道中心:
EARTH
卫星名称:
COSMOS 338
卫星全名:
--
卫星状态:
在轨 (已飞行20596 天)
发射日期:
1970-04-25 UTC
国别 :
俄罗斯(独联体) (CIS)
星等 :
--
该卫星已列入 空间交会检测服务 Space Conjunction Data Service (SCDS) ,当前飞行风险评估等级: 无高风险
轨道信息
数据来源 国际轨道数据 AOE轨道数据
星历时间 2026-09-14T07:33:47+0800
5小时前
查看轨道信息
2026-09-12T23:00:00+0800
1天前
查看轨道信息
半长轴 7870.466km 7870.469km
偏心率 0.0032366 0.0032351
轨道倾角 74.026° 74.026°
近地点辐角 290.711° 292.801°
升交点赤经 93.876° 95.657°
平近点角 239.195° 285.905°
近地点 1466.855km 1466.87km
远地点 1517.803km 1517.794km
周期 115.814分钟 115.814分钟
每日圈数 12.433751 12.433744
详细信息
使用方式:
暂无
2D轨道图
3D轨道图
轨道高度分析图
轨道倾角分析图
轨道综合分析图
查看轨道综合分析图
与全量物体交会距离演化趋势 订阅飞行安全评估服务
与全量物体交会风险概率演化趋势 订阅飞行安全评估服务